ONEWEB-0066 (45424 NORAD) Tracking and Keplerian Element Data

This shows tracking and keplerian element data for the satellite.

Feedback or suggestion? Click here.




ElementValue
Catalog45424
NameONEWEB-0066
Epoch Orbit1567
Epoch Day185.50001157
Epoch Year2020
RAAN104.972
Inclination87.5644
Eccentricity0.0021998
Argument of Perigee270.1533
Mean Anonmoly18.7639
Mean Motion14.89785625
Decay Rate-0.00026526
L11 45424U 20020A 20185.50001157 -.00026526 00000-0 -27707-2 0 9996
L22 45424 87.5644 104.9720 0021998 270.1533 18.7639 14.89785625 15676

Live tracking and technical data element details for ONEWEB-0066 (NORAD 45424). ONEWEB-0066 can be tracked NOW for your location showing map with azimuth and elevation plus other details from your city location.

Track the satellite on the map from your city or location and see movement details for azimuth, elevation, latitude, longitude, range, height, and movement on the map or in text.







IsCatalogInMostPopularTable: catalog: 45424, numindb: 21
Update: records affected: 1



GetName: 45424 ONEWEB-0066

Hit Count: updated at: Fri, 03 Jul 2020 16:41:47 GMT